Cordoba, Spain

10:15 AM CEST on July 21, 2017 (GMT +0200)
Cordoba

Weather History for LEBA - June, 2013

Change the Weather History Date:

Sunday, June 9, 2013

  Actual Average Record
Temperature  
Mean Temperature 64 °F -  
Max Temperature 77 °F - - ()
Min Temperature 50 °F - - ()
Degree Days  
Heating Degree Days 2    
Growing Degree Days 14 (Base 50)    
Moisture  
Dew Point 49 °F    
Average Humidity 59    
Maximum Humidity 88    
Minimum Humidity 35    
Precipitation  
Precipitation 0.00 in 0.02 in - ()
Sea Level Pressure  
Sea Level Pressure 30.04 in    
Wind  
Wind Speed 4 mph ()    
Max Wind Speed 10 mph    
Max Gust Speed -    
Visibility 8.3 miles    
Events      
T = Trace of Precipitation, MM = Missing Value Source: Averaged Metar Reports

Daily Weather History Graph

Daily Weather History Graph

Search for Another Location

Airport or City:

Trip Planner

Search our weather history database for the weather conditions in past years. The results will help you decide how hot, cold, wet, or windy it might be!

Date:

Astronomy

Jun. 09, 2013 Rise Set
Actual Time 6:56 AM CEST 9:40 PM CEST
Civil Twilight 6:25 AM CEST 10:11 PM CEST
Nautical Twilight 5:46 AM CEST 10:50 PM CEST
Astronomical Twilight 5:02 AM CEST 11:34 PM CEST
Moon 7:40 AM CEST (6/9) 10:18 PM CEST (6/9)
Length of Visible Light 15h 46m
Length of Day
14h 43m
New Moon, 1% of the Moon is Illuminated
Jun 9
New Moon
Jun 16
First Quarter
Jun 23
Full
Jun 30
Last Quarter
Jul 8
New

Hourly Weather History & Observations

Time (CEST) Temp. Dew Point Humidity Pressure Visibility Wind Dir Wind Speed Gust Speed Precip Events Conditions
2:00 AM 56 °F 51 °F 78% 30.07 in - WSW 4.6 mph - -  
7:00 AM 50.0 °F 46.4 °F 87% 30.04 in 6.2 mi SW 1.2 mph - N/A   Scattered Clouds
8:00 AM 54 °F 50 °F 83% 30.06 in 19 mi Calm Calm - -   Mostly Cloudy
8:00 AM 53.6 °F 50.0 °F 88% 30.04 in 6.2 mi Calm Calm - N/A   Mostly Cloudy
9:00 AM 55.4 °F 50.0 °F 82% 30.06 in 6.2 mi Variable 1.2 mph - N/A   Overcast
10:00 AM 57.2 °F 50.0 °F 77% 30.06 in 6.2 mi Variable 2.3 mph - N/A   Overcast
11:00 AM 60.8 °F 51.8 °F 72% 30.06 in 6.2 mi SW 3.5 mph - N/A   Scattered Clouds
12:00 PM 64.4 °F 50.0 °F 59% 30.06 in 6.2 mi SW 6.9 mph - N/A   Mostly Cloudy
1:00 PM 66.2 °F 50.0 °F 56% 30.06 in 6.2 mi West 2.3 mph - N/A   Mostly Cloudy
2:00 PM 71 °F 50 °F 36% 30.05 in 19 mi West 8.1 mph - -   Mostly Cloudy
2:00 PM 69.8 °F 50.0 °F 49% 30.04 in 6.2 mi West 6.9 mph - N/A   Mostly Cloudy
3:00 PM 69.8 °F 48.2 °F 46% 30.04 in 6.2 mi WSW 8.1 mph - N/A   Overcast
4:00 PM 69.8 °F 48.2 °F 46% 30.04 in 6.2 mi West 10.4 mph - N/A   Overcast
5:00 PM 71.6 °F 48.2 °F 43% 30.01 in 6.2 mi West 8.1 mph - N/A   Overcast
6:00 PM 71.6 °F 48.2 °F 43% 30.01 in 6.2 mi SW 8.1 mph - N/A   Mostly Cloudy
7:00 PM 71.6 °F 48.2 °F 43% 30.01 in 6.2 mi WSW 9.2 mph - N/A   Overcast
8:00 PM 71 °F 49 °F 35% 30.02 in 19 mi WSW 8.1 mph - -   Overcast
8:00 PM 69.8 °F 48.2 °F 46% 30.01 in 6.2 mi WSW 8.1 mph - N/A   Overcast
9:00 PM 69.8 °F 48.2 °F 46% 30.04 in 6.2 mi West 3.5 mph - N/A   Overcast